Home   Weather   Berkeley   Past weeks

Flag for USA Past Weather in Berkeley, California, USA — Yesterday and Last 2 Weeks

Now
70 °F

Sunny.


Feels Like: 76 °F
Forecast: 54 / 75 °F
Wind: 9 mph from West

Location: Metro Oakland International Airport

Current Time: Jul 21, 2017 at 1:55:23 pm

Latest Report: Jul 21, 2017 at 12:53 pm


Visibility: 10 mi

Pressure: 30.01 "Hg

Humidity: 57%

Dew Point: 54 °F

Location of BerkeleyLocation

Past Weather in Berkeley — Graph

°F

Berkeley Temperature Yesterday

Maximum temperature yesterday: 70 °F (at 2:53 pm)
Minimum temperature yesterday: 58 °F (at 12:53 am)
Average temperature yesterday: 63 °F

High & Low Weather Summary for the Past Weeks

 TemperatureHumidityPressure
High84 °F (Jul 15, 2:53 pm)93% (Jul 13, 2:53 am)30.09 "Hg (Jul 13, 2:53 am)
Low55 °F (Jul 11, 4:53 am)36% (Jul 16, 3:53 pm)29.83 "Hg (Jul 16, 6:53 pm)
Average65 °F72%29.97 "Hg
* Reported Jul 6 11:53 am — Jul 21 11:53 am, Berkeley. Weather by CustomWeather, © 2017

Note: Actual official high and low records may vary slightly from our data, if they occured in-between our weather recording intervals... More about our weather records

Advertising

Berkeley Weather History for the Previous 24 Hours

Scroll right to see more
 ConditionsComfort  
Time TempWeatherWind HumidityBarometerVisibility
11:53 am
Fri, Jul 21
68 °FSunny.8 mph61%30.02 "Hg10 mi
10:53 am65 °FPassing clouds.6 mph70%30.03 "Hg10 mi
9:53 am65 °FPassing clouds.8 mph68%30.02 "Hg10 mi
8:53 am62 °FPassing clouds.8 mph75%30.02 "Hg10 mi
8:26 am62 °FScattered clouds.5 mph75%30.03 "Hg10 mi
7:53 am60 °FPartly sunny.9 mph80%30.02 "Hg10 mi
6:53 am60 °FScattered clouds.10 mph83%30.01 "Hg10 mi
5:53 am58 °FOvercast.No wind87%30.00 "Hg10 mi
4:53 am59 °FOvercast.No wind84%29.99 "Hg10 mi
3:53 am59 °FPassing clouds.8 mph87%29.99 "Hg10 mi
2:53 am58 °FPassing clouds.3 mph87%29.99 "Hg10 mi
1:53 am57 °FPassing clouds.6 mph83%30.00 "Hg10 mi
12:53 am58 °FPassing clouds.6 mph84%30.01 "Hg10 mi
11:53 pm
Thu, Jul 20
61 °FClear.3 mph78%30.02 "Hg10 mi
10:53 pm60 °FClear.12 mph78%30.02 "Hg10 mi
9:53 pm61 °FClear.13 mph75%30.01 "Hg10 mi
8:53 pm61 °FPassing clouds.16 mph75%30.01 "Hg10 mi
7:53 pm64 °FPassing clouds.14 mph70%30.01 "Hg10 mi
6:53 pm67 °FPassing clouds.9 mph66%30.01 "Hg10 mi
5:53 pm68 °FPassing clouds.13 mph65%30.01 "Hg10 mi
4:53 pm69 °FPassing clouds.15 mph61%30.02 "Hg10 mi
3:53 pm69 °FPassing clouds.14 mph61%30.03 "Hg10 mi
2:53 pm70 °FPassing clouds.14 mph59%30.05 "Hg10 mi
1:53 pm69 °FPassing clouds.10 mph61%30.06 "Hg10 mi
Weather by CustomWeather, © 2017

See weather overviewHow to use our weather pages